Weather History for KPHP - March, 2014

Change the Weather History Date:

Thursday, March 6, 2014

  Actual Average Record
Temperature  
Mean Temperature 47 °F 31 °F  
Max Temperature 60 °F 44 °F 78 °F (1972)
Min Temperature 33 °F 18 °F -12 °F (1966)
Degree Days  
Heating Degree Days 18 34  
Month to date heating degree days 315 209  
Since 1 July heating degree days 5918 5574  
Cooling Degree Days 0 0  
Month to date cooling degree days 0 0  
Year to date cooling degree days 0 0  
Moisture  
Dew Point 34 °F    
Average Humidity 61    
Maximum Humidity 79    
Minimum Humidity 42    
Precipitation  
Precipitation 0.00 in 0.04 in 0.22 in (1975)
Month to date precipitation 0.23 0.24  
Year to date precipitation 0.71 1.02  
Sea Level Pressure  
Sea Level Pressure 29.71 in    
Wind  
Wind Speed 6 mph (West)    
Max Wind Speed 21 mph    
Max Gust Speed 26 mph    
Visibility 10 miles    
Events      
T = Trace of Precipitation, MM = Missing Value Source: NWS Daily Summary

Daily Weather History Graph

Daily Weather History Graph

Search for Another Location

Airport or City:

Trip Planner

Search our weather history database for the weather conditions in past years. The results will help you decide how hot, cold, wet, or windy it might be!

Date:

Astronomy

Mar. 06, 2014 Rise Set
Actual Time 6:14 AM MST 5:41 PM MST
Civil Twilight 5:45 AM MST 6:10 PM MST
Nautical Twilight 5:12 AM MST 6:43 PM MST
Astronomical Twilight 4:38 AM MST 7:17 PM MST
Moon 9:11 AM MST (3/6) No Moon Set
Length of Visible Light 12h 24m
Length of Day
11h 26m
Waxing Crescent, 33% of the Moon is Illuminated
Mar 6
Waxing Crescent
Mar 8
First Quarter
Mar 16
Full
Mar 23
Last Quarter
Mar 30
New

Hourly Weather History & Observations

Time (MST) Temp. Windchill Dew Point Humidity Pressure Visibility Wind Dir Wind Speed Gust Speed Precip Events Conditions
12:55 AM 41.0 °F 37.1 °F 32.0 °F 70% 29.84 in 10.0 mi SW 5.8 mph - N/A   Clear
1:55 AM 39.0 °F - 30.9 °F 73% 29.81 in 10.0 mi Calm Calm - N/A   Clear
2:55 AM 35.1 °F 30.1 °F 28.9 °F 78% 29.79 in 10.0 mi WNW 5.8 mph - N/A   Clear
3:55 AM 35.1 °F 29.3 °F 28.9 °F 78% 29.77 in 10.0 mi West 6.9 mph - N/A   Clear
4:55 AM 36.0 °F 29.0 °F 28.9 °F 76% 29.77 in 10.0 mi West 9.2 mph - N/A   Clear
5:55 AM 36.0 °F 28.5 °F 28.9 °F 76% 29.77 in 10.0 mi West 10.4 mph - N/A   Clear
6:55 AM 37.0 °F 29.8 °F 28.9 °F 73% 29.78 in 10.0 mi West 10.4 mph - N/A   Clear
7:55 AM 39.0 °F 33.4 °F 30.9 °F 73% 29.77 in 10.0 mi West 8.1 mph - N/A   Clear
10:55 AM 48.0 °F - 35.1 °F 61% 29.72 in 10.0 mi Calm Calm - N/A   Unknown
11:55 AM 51.1 °F - 36.0 °F 56% 29.70 in 10.0 mi SSW 4.6 mph - N/A   Clear
12:55 PM 53.1 °F - 37.0 °F 55% 29.64 in 10.0 mi Calm Calm - N/A   Clear
1:55 PM 54.0 °F - 39.0 °F 57% 29.62 in 10.0 mi SSE 4.6 mph - N/A   Clear
2:55 PM 57.9 °F - 37.0 °F 46% 29.61 in 10.0 mi SSW 8.1 mph - N/A   Clear
3:55 PM 60.1 °F - 37.0 °F 42% 29.58 in 10.0 mi South 5.8 mph - N/A   Clear
4:55 PM 57.9 °F - 37.9 °F 47% 29.57 in 10.0 mi Calm Calm - N/A   Clear
5:55 PM 45.0 °F 38.9 °F 36.0 °F 71% 29.62 in 10.0 mi NNW 12.7 mph - N/A   Clear
6:55 PM 41.0 °F 35.8 °F 35.1 °F 79% 29.66 in 10.0 mi WNW 8.1 mph - N/A   Clear
7:55 PM 45.0 °F 38.2 °F 34.0 °F 65% 29.67 in 10.0 mi NNW 15.0 mph 26.5 mph N/A   Mostly Cloudy
8:55 PM 41.0 °F 36.4 °F 33.1 °F 73% 29.70 in 10.0 mi WNW 6.9 mph - N/A   Partly Cloudy
9:55 PM 42.1 °F 36.6 °F 34.0 °F 73% 29.74 in 10.0 mi NNW 9.2 mph - N/A   Overcast
10:55 PM 41.0 °F 34.7 °F 34.0 °F 76% 29.79 in 10.0 mi NNW 10.4 mph - N/A   Overcast
11:55 PM 39.0 °F 32.8 °F 34.0 °F 82% 29.81 in 10.0 mi NNW 9.2 mph - N/A   Overcast